This is the latest recevied weather packets stored in our database for station/object W3TMB. If no packets are shown the sender has not sent any weather packets the latest 10 day(s).
| Time | Temp. | Humidity | Pressure | Rain* | Wind** | Luminosity | Snow |
|---|---|---|---|---|---|---|---|
| 1777334434 | 18.89° C | 48% | 1018.7 hPa | 0 mm | - | 1 W/m² | - |
| 1777334131 | 18.89° C | 49% | 1018.6 hPa | 0 mm | - | 3 W/m² | - |
| 1777333830 | 19.44° C | 47% | 1018.7 hPa | 0 mm | - | 5 W/m² | - |
| 1777333527 | 19.44° C | 46% | 1018.6 hPa | 0 mm | - | 8 W/m² | - |
| 1777333224 | 20° C | 45% | 1018.7 hPa | 0 mm | - | 11 W/m² | - |
| 1777332922 | 20° C | 45% | 1018.7 hPa | 0 mm | - | 14 W/m² | - |
| 1777332621 | 20° C | 46% | 1018.6 hPa | 0 mm | - | 17 W/m² | - |
| 1777332316 | 20.56° C | 45% | 1018.5 hPa | 0 mm | - | 22 W/m² | - |
| 1777332013 | 20.56° C | 44% | 1018.4 hPa | 0 mm | - | 27 W/m² | - |
| 1777331711 | 20.56° C | 42% | 1018.4 hPa | 0 mm | - | 31 W/m² | - |
| 1777331408 | 21.11° C | 43% | 1018.5 hPa | 0 mm | - | 37 W/m² | - |
| 1777331105 | 21.11° C | 42% | 1018.3 hPa | 0 mm | - | 42 W/m² | - |
| 1777330802 | 21.11° C | 43% | 1018.3 hPa | 0 mm | - | 50 W/m² | - |
| 1777330499 | 21.67° C | 41% | 1018.5 hPa | 0 mm | - | 55 W/m² | - |
| 1777330196 | 21.67° C | 41% | 1018.5 hPa | 0 mm | - | 69 W/m² | - |
| 1777329895 | 22.22° C | 40% | 1018.5 hPa | 0 mm | - | 78 W/m² | - |
| 1777329593 | 22.22° C | 42% | 1018.3 hPa | 0 mm | - | 81 W/m² | - |
| 1777329291 | 22.22° C | 41% | 1018.5 hPa | 0 mm | - | 90 W/m² | - |
| 1777328988 | 22.78° C | 41% | 1018.5 hPa | 0 mm | - | 96 W/m² | - |
| 1777328686 | 22.22° C | 40% | 1018.6 hPa | 0 mm | - | 127 W/m² | - |
| 1777328383 | 22.22° C | 40% | 1018.4 hPa | 0 mm | - | 137 W/m² | - |
| 1777328082 | 22.22° C | 39% | 1018.6 hPa | 0 mm | - | 168 W/m² | - |
| 1777327779 | 22.22° C | 39% | 1018.4 hPa | 0 mm | - | 180 W/m² | - |
| 1777327477 | 22.78° C | 39% | 1018.7 hPa | 0 mm | - | 186 W/m² | - |
| 1777327174 | 22.78° C | 38% | 1018.3 hPa | 0 mm | - | 205 W/m² | - |
* Rain latest hour (hover to see other rain measurements)
** Current wind speed in m/s (hover to see current wind gust speed)